User: anonymous   Login
Location: Unspecified
(0.0000°N, 0.0000°E)
Time: 07:39:22
(UTC+00:00)
Language:

eXCITe - Orbit

View from above orbital plane
View from above orbital plane
View from above satellite
View from above satellite

Ground track
Ground track

The orbit data is extracted from the following two-line orbital elements,

1 43758U 18099A   25138.74767796  .00018096  00000-0  72494-3 0  9999
2 43758  97.5019 204.7227 0011239 225.0623 134.9704 15.25039567353642
Epoch (UTC): 18 May 2025 17:56:39
Eccentricity: 0.0011239
inclination: 97.5019°
perigee height: 483 km
apogee height: 498 km
right ascension of ascending node: 204.7227°
argument of perigee: 225.0623°
revolutions per day: 15.25039567
mean anomaly at epoch: 134.9704°
orbit number at epoch: 35364

The dashed part of the orbit path shows where the satellite is in the earth's shadow,  

DLR